Regional Weather Roundup
Issued by NWS

Home | Current Version | Previous Version | Text Only | Print | Product List | Glossary Off
Versions: 1 2 3 4 5 6 7 8 9 10 11 12 13 14 15 16 17 18 19 20 21 22 23 24 25 26 27 28 29 30 31 32 33 34 35 36 37 38 39 40 41 42 43 44 45 46 47 48 49 50

000
ASUS45 KABQ 051610
RWRNM
NEW MEXICO REGIONAL WEATHER ROUNDUP
NATIONAL WEATHER SERVICE ALBUQUERQUE NM
1000 AM MDT SAT SEP 05 2015

NOTE: "FAIR" MEANS FEW OR NO CLOUDS BELOW 12,000 FEET AGL WITH NO
       SIGNIFICANT WEATHER OR OBSTRUCTIONS TO VISION.

      THIS PRODUCT IS RELEASED AS TWO VERSIONS.  ONE VERSION NEAR
      THE TOP OF THE HOUR CONTAINING PRELIMINARY DATA FROM ALBUQUERQUE
      AND OTHER STATIONS.  A FINAL VERSION WITH ADDITIONAL DATA IS
      ISSUED ABOUT 10 MINUTES AFTER THE HOUR.

NMZ501-503-504-510>518-051700-
NORTHWEST PLATEAU/NORTHCENTRAL MOUNTAINS

CITY           SKY/WX    TMP DP  RH WIND       PRES   REMARKS
FARMINGTON     CLOUDY    64  59  83 E9        30.17R
LOS ALAMOS     MOSUNNY   64  55  72 NE6       30.30R
SANTA FE       MOSUNNY   67  55  65 VRB5      30.24S
TAOS           CLOUDY    61  48  63 SE6       30.31S
ANGEL FIRE     CLOUDY    57  50  77 W7        30.34F

$$
NMZ402-403-502-505>509-051700-
WESTCENTRAL MOUNTAINS/SOUTHWEST MOUNTAINS

CITY           SKY/WX    TMP DP  RH WIND       PRES   REMARKS
GALLUP         CLOUDY    63  55  75 SW6       30.24S
GRANTS         CLOUDY    61  58  88 SE6       30.28R
SILVER CITY      N/A     68  55  64 SE3       30.22R

$$
NMZ407-409-411-412-051700-
SOUTHERN DESERTS

CITY           SKY/WX    TMP DP  RH WIND       PRES   REMARKS
LORDSBURG      CLOUDY    68  63  83 CALM      30.14R
DEMING         CLOUDY    70  60  70 CALM      30.14R
LAS CRUCES     PTSUNNY   77  58  51 E3        30.14R
HOLLOMAN AFB   MOSUNNY   77  55  45 NE1       30.08R
ALAMOGORDO     PTSUNNY   79  54  41 SW5       30.11R
T OR C         CLOUDY    72  56  57 CALM      30.15R

$$
NMZ519>523-051700-
CENTRAL VALLEYS/CENTRAL HIGHLANDS

CITY           SKY/WX    TMP DP  RH WIND       PRES   REMARKS
ALBUQUERQUE    PTSUNNY   72  55  55 CALM      30.20R
DOUBLE EAGLE   PTSUNNY   72  59  64 VRB6      30.23
MORIARTY ARPT  FAIR      69  52  55 CALM      30.26R
CLINES CORNERS PTSUNNY   69  50  50 W8        30.28R
BELEN          FAIR      71  57  60 CALM      30.19S
SOCORRO        CLOUDY    72  58  61 N6        30.16S

$$
NMZ524>526-539-540-051700-
SOUTHCENTRAL MOUNTAINS

CITY           SKY/WX    TMP DP  RH WIND       PRES   REMARKS
RUIDOSO        NOT AVBL

$$
NMZ527>531-051700-
NORTHEAST HIGHLANDS/NORTHEAST PLAINS

CITY           SKY/WX    TMP DP  RH WIND       PRES   REMARKS
LAS VEGAS      CLOUDY    71  49  45 SW15G23   30.26R
RATON          MOSUNNY   71  49  45 S10       30.18S
CLAYTON        SUNNY     80  54  40 SW20      30.11S

$$
NMZ532>537-051700-
EASTCENTRAL PLAINS

CITY           SKY/WX    TMP DP  RH WIND       PRES   REMARKS
TUCUMCARI      PTSUNNY   80  54  40 SW10      30.09R
CANNON AFB     SUNNY     81  59  46 S13       30.12S
CLOVIS AIRPORT SUNNY     82  57  42 S17       30.13S

$$
NMZ028-029-538-051700-
SOUTHEAST PLAINS

CITY           SKY/WX    TMP DP  RH WIND       PRES   REMARKS
ROSWELL        SUNNY     81  59  47 S15G22    30.08R
ARTESIA        SUNNY     81  59  47 S10       30.08S
CARLSBAD       SUNNY     82  62  50 SE8       30.04F
HOBBS          SUNNY     81  64  57 SE14      30.10S


$$


USA.gov is the U.S. government's official web portal to all federal, state and local government web resources and services.